TimeEST,TemperatureF,Dew PointF,Humidity,Sea Level PressureIn,VisibilityMPH,Wind Direction,Wind SpeedMPH,Gust SpeedMPH,PrecipitationIn,Events,Conditions,WindDirDegrees,DateUTC
12:55 AM,8.2,3.7,82,30.33,10.0,Calm,Calm,-,N/A,,Overcast,0,2013-02-11 05:55:00
1:55 AM,12.0,7.3,81,30.30,10.0,Calm,Calm,-,N/A,,Overcast,0,2013-02-11 06:55:00
2:55 AM,14.9,8.4,76,30.28,10.0,Calm,Calm,-,N/A,,Overcast,0,2013-02-11 07:55:00
3:55 AM,15.8,10.6,80,30.24,10.0,NE,3.5,-,N/A,,Clear,40,2013-02-11 08:55:00
4:55 AM,18.3,11.3,74,30.24,10.0,Calm,Calm,-,N/A,,Clear,0,2013-02-11 09:55:00
5:55 AM,19.8,14.2,79,30.22,10.0,NE,3.5,-,N/A,,Clear,40,2013-02-11 10:55:00
6:24 AM,19.4,15.8,86,30.21,10.0,Calm,Calm,-,N/A,Snow,Light Snow,0,2013-02-11 11:24:00
6:28 AM,21.2,15.8,80,30.21,1.5,West,3.5,-,N/A,Snow,Light Snow,260,2013-02-11 11:28:00
6:38 AM,21.2,17.6,86,30.20,1.8,Calm,Calm,-,N/A,Snow,Light Snow,0,2013-02-11 11:38:00
6:55 AM,21.2,15.8,80,30.19,1.8,Calm,Calm,-,N/A,Snow,Light Snow,0,2013-02-11 11:55:00
7:20 AM,21.2,17.6,86,30.17,4.0,North,3.5,-,N/A,Snow,Light Snow,360,2013-02-11 12:20:00
7:55 AM,23.0,19.4,86,30.13,1.8,NE,4.6,-,N/A,Snow,Light Snow,50,2013-02-11 12:55:00
8:16 AM,23.0,21.2,93,30.12,3.0,Calm,Calm,-,N/A,Snow,Light Snow,0,2013-02-11 13:16:00
8:46 AM,24.8,21.2,86,30.10,4.0,Calm,Calm,-,N/A,,Light Ice Pellets,0,2013-02-11 13:46:00
8:55 AM,24.8,23.0,93,30.09,4.0,Calm,Calm,-,N/A,,Light Ice Pellets,0,2013-02-11 13:55:00
9:12 AM,24.8,24.8,100,30.09,4.0,WNW,3.5,-,N/A,Rain,Light Freezing Rain,290,2013-02-11 14:12:00
9:48 AM,26.6,26.6,100,30.06,2.0,Calm,Calm,-,N/A,Rain,Light Freezing Rain,0,2013-02-11 14:48:00
9:55 AM,26.6,26.6,100,30.06,2.0,Calm,Calm,-,N/A,Rain,Light Freezing Rain,0,2013-02-11 14:55:00
10:35 AM,28.4,28.4,100,30.01,1.5,Calm,Calm,-,N/A,Rain,Light Freezing Rain,0,2013-02-11 15:35:00
10:55 AM,30.2,28.4,93,29.99,1.5,Calm,Calm,-,N/A,,Light Freezing Drizzle,0,2013-02-11 15:55:00
11:55 AM,32.0,30.2,93,29.94,1.8,Calm,Calm,-,N/A,,Light Freezing Drizzle,0,2013-02-11 16:55:00
12:40 PM,32.0,32.0,100,29.88,2.0,Calm,Calm,-,N/A,,Light Freezing Drizzle,0,2013-02-11 17:40:00
12:49 PM,32.0,32.0,100,29.86,1.8,Calm,Calm,-,N/A,,Overcast,0,2013-02-11 17:49:00
12:55 PM,32.0,32.0,100,29.86,1.8,SSW,3.5,-,N/A,,Overcast,210,2013-02-11 17:55:00
1:55 PM,32.0,32.0,100,29.82,1.2,North,3.5,-,N/A,,Overcast,350,2013-02-11 18:55:00
2:36 PM,32.0,32.0,100,29.80,1.0,Calm,Calm,-,N/A,,Overcast,0,2013-02-11 19:36:00
2:49 PM,32.0,32.0,100,29.79,0.8,Calm,Calm,-,N/A,,Overcast,0,2013-02-11 19:49:00
2:53 PM,32.0,32.0,100,29.79,0.8,Calm,Calm,-,N/A,,Overcast,0,2013-02-11 19:53:00
2:55 PM,32.9,32.4,98,29.79,0.5,Calm,Calm,-,N/A,Fog,Fog,0,2013-02-11 19:55:00
3:37 PM,33.8,33.8,100,29.76,0.2,South,3.5,-,N/A,Fog,Fog,170,2013-02-11 20:37:00
3:42 PM,33.8,33.8,100,29.75,0.2,Calm,Calm,-,N/A,Fog,Fog,0,2013-02-11 20:42:00
3:55 PM,33.6,33.1,98,29.74,0.2,SSE,3.5,-,N/A,Fog,Fog,150,2013-02-11 20:55:00
4:55 PM,33.6,33.3,99,29.72,0.2,Calm,Calm,-,N/A,Fog,Fog,0,2013-02-11 21:55:00
5:55 PM,33.4,33.1,99,29.72,0.2,Calm,Calm,-,N/A,Fog,Fog,0,2013-02-11 22:55:00
6:20 PM,33.8,32.0,93,29.70,0.2,SSE,4.6,-,N/A,Fog,Fog,150,2013-02-11 23:20:00
6:21 PM,33.8,32.0,93,29.70,0.2,SSE,5.8,-,N/A,Fog,Fog,150,2013-02-11 23:21:00
6:36 PM,35.6,33.8,93,29.68,0.2,SSE,9.2,-,N/A,Fog,Fog,160,2013-02-11 23:36:00
6:37 PM,35.6,33.8,93,29.68,0.2,SSE,9.2,-,N/A,Fog,Fog,160,2013-02-11 23:37:00
6:42 PM,35.6,33.8,93,29.68,0.5,SSE,9.2,-,N/A,Fog,Fog,150,2013-02-11 23:42:00
6:46 PM,35.6,33.8,93,29.68,0.5,SSE,9.2,-,N/A,Fog,Fog,160,2013-02-11 23:46:00
6:55 PM,35.8,35.2,98,29.68,0.5,SSE,9.2,-,N/A,Fog,Fog,150,2013-02-11 23:55:00
7:15 PM,35.6,35.6,100,29.68,0.2,West,4.6,-,N/A,Fog,Fog,280,2013-02-12 00:15:00
7:25 PM,35.6,35.6,100,29.67,0.2,Calm,Calm,-,N/A,Fog,Fog,0,2013-02-12 00:25:00
7:32 PM,35.6,33.8,93,29.66,0.2,Calm,Calm,-,N/A,Fog,Fog,0,2013-02-12 00:32:00
7:33 PM,35.6,33.8,93,29.66,0.2,Calm,Calm,-,N/A,Fog,Fog,0,2013-02-12 00:33:00
7:55 PM,34.0,33.4,98,29.66,0.2,Calm,Calm,-,N/A,Fog,Fog,0,2013-02-12 00:55:00
8:00 PM,33.8,33.8,100,29.66,0.2,Calm,Calm,-,N/A,Fog,Fog,0,2013-02-12 01:00:00
8:07 PM,33.8,33.8,100,29.65,0.5,Calm,Calm,-,N/A,Fog,Fog,0,2013-02-12 01:07:00
8:12 PM,33.8,33.8,100,29.65,0.2,Calm,Calm,-,N/A,Fog,Fog,0,2013-02-12 01:12:00
8:18 PM,33.8,33.8,100,29.65,0.2,Calm,Calm,-,N/A,Fog,Fog,0,2013-02-12 01:18:00
8:21 PM,33.8,33.8,100,29.65,0.2,Calm,Calm,-,N/A,Fog,Fog,0,2013-02-12 01:21:00
8:52 PM,33.8,33.8,100,29.66,0.2,Calm,Calm,-,N/A,Fog,Fog,0,2013-02-12 01:52:00
8:53 PM,33.8,33.8,100,29.67,0.2,Calm,Calm,-,N/A,Fog,Fog,0,2013-02-12 01:53:00
8:55 PM,34.0,33.4,98,29.66,0.2,NW,5.8,-,N/A,Fog,Fog,310,2013-02-12 01:55:00
8:56 PM,33.8,33.8,100,29.66,0.2,NW,4.6,-,N/A,Fog,Fog,320,2013-02-12 01:56:00
9:04 PM,33.8,33.8,100,29.67,0.2,NW,3.5,-,N/A,Fog,Fog,320,2013-02-12 02:04:00
9:14 PM,33.8,33.8,100,29.67,0.2,NW,6.9,-,N/A,Fog,Fog,320,2013-02-12 02:14:00
9:19 PM,35.6,33.8,93,29.67,0.2,NW,3.5,-,N/A,Fog,Fog,320,2013-02-12 02:19:00
9:36 PM,33.8,33.8,100,29.66,0.2,Calm,Calm,-,N/A,Fog,Fog,0,2013-02-12 02:36:00
9:38 PM,33.8,33.8,100,29.66,0.2,Calm,Calm,-,N/A,Fog,Fog,0,2013-02-12 02:38:00
9:49 PM,33.8,33.8,100,29.66,0.2,Calm,Calm,-,N/A,Fog,Fog,0,2013-02-12 02:49:00
9:51 PM,33.8,33.8,100,29.66,0.2,Calm,Calm,-,N/A,Fog,Fog,0,2013-02-12 02:51:00
9:55 PM,33.8,33.3,98,29.65,0.2,Calm,Calm,-,N/A,Fog,Fog,0,2013-02-12 02:55:00
10:29 PM,33.8,33.8,100,29.67,0.2,Calm,Calm,-,N/A,Fog,Fog,0,2013-02-12 03:29:00
10:42 PM,33.8,33.8,100,29.67,0.2,NW,6.9,-,N/A,Fog,Fog,310,2013-02-12 03:42:00
10:46 PM,33.8,33.8,100,29.68,0.5,NNW,5.8,-,N/A,Fog,Fog,330,2013-02-12 03:46:00
10:47 PM,33.8,33.8,100,29.68,0.5,NNW,4.6,-,N/A,Fog,Fog,330,2013-02-12 03:47:00
10:51 PM,35.6,33.8,93,29.67,0.5,NNW,5.8,-,N/A,Fog,Fog,340,2013-02-12 03:51:00
10:55 PM,35.1,34.5,98,29.68,0.5,NNW,4.6,-,N/A,Fog,Fog,330,2013-02-12 03:55:00
10:57 PM,35.6,33.8,93,29.68,0.5,NNW,4.6,-,N/A,Fog,Fog,330,2013-02-12 03:57:00
10:58 PM,35.6,33.8,93,29.68,0.8,NW,5.8,-,N/A,,Mostly Cloudy,320,2013-02-12 03:58:00
11:00 PM,35.6,35.6,100,29.68,1.0,NW,6.9,-,N/A,,Overcast,320,2013-02-12 04:00:00
11:02 PM,35.6,35.6,100,29.68,1.2,NW,6.9,-,N/A,,Overcast,320,2013-02-12 04:02:00
11:03 PM,35.6,35.6,100,29.68,1.5,NW,5.8,-,N/A,,Overcast,320,2013-02-12 04:03:00
11:04 PM,35.6,35.6,100,29.68,2.0,NNW,5.8,-,N/A,,Overcast,330,2013-02-12 04:04:00
11:05 PM,35.6,35.6,100,29.68,2.5,NNW,5.8,-,N/A,,Overcast,330,2013-02-12 04:05:00
11:06 PM,35.6,35.6,100,29.68,4.0,NNW,5.8,-,N/A,,Overcast,330,2013-02-12 04:06:00
11:10 PM,35.6,35.6,100,29.68,8.0,NW,4.6,-,N/A,,Overcast,320,2013-02-12 04:10:00
11:55 PM,37.0,36.9,99,29.67,10.0,NW,11.5,-,N/A,,Overcast,310,2013-02-12 04:55:00